[[{"header":{"parameterUnit":"m.s-1","parameterCategory":1,"la1":30.2991,"la2":30.254,"lo1":-89.0895,"lo2":-89.0444,"dy":0.0017,"dx":0.0017,"nx":28,"ny":28,"refTime":"2025-03-05T09:00:00:Z","depth":0,"parameterNumber":2,"parameterNumberName":"U-component_of_WINDS"},"data":[0,0,0,0,0,0,0,0,0,0,0,0,0,0,0,0,0,0,0,0,0,0,0,0,0,0,0,0,0,0,0,0,0,0,0,0,0,0,0,0,0,0,0,0,0,0,0,0,0,0,0,0,0,0,0,0,0,0,1.8332,1.8333,0,1.8436,1.8437,1.8438,1.8442,1.844,1.8439,1.8438,1.8549,1.8553,1.8557,0,0,0,0,0,0,0,0,0,0,0,0,0,1.8141,1.8144,1.8331,1.8333,1.8334,1.8436,1.8437,1.8438,1.8442,1.844,1.8439,1.8437,1.8548,1.8552,1.8557,0,0,0,0,0,0,0,0,0,0,0,0,0,1.8232,1.8145,1.8331,1.8348,1.835,1.8435,1.8437,1.8439,1.8442,1.844,1.8438,1.8437,1.8546,1.8552,1.8558,1.8635,0,0,1.8577,1.858,0,0,0,0,0,0,0,0,1.8227,1.8239,1.8344,1.8347,1.835,1.8424,1.841,1.8505,1.8443,1.8408,1.8438,1.8436,1.8509,1.8518,1.8542,1.864,1.8645,1.8578,1.8581,1.8584,1.8586,0,0,0,0,0,0,0,1.8221,1.8235,1.8373,1.8346,1.8349,1.8352,1.8363,1.8428,1.8468,1.841,1.8411,1.8423,1.851,1.8536,1.8545,1.8646,1.8577,1.8583,1.8587,1.8589,1.8815,1.8817,0,0,0,0,0,0,1.821,1.823,1.837,1.8376,1.8282,1.8357,1.8369,1.8402,1.8467,1.8475,1.8425,1.8423,1.8526,1.8537,1.8549,1.8644,1.8584,1.859,1.8593,1.8813,1.8815,1.8818,0,0,0,0,0,0,1.8206,1.8223,1.8365,1.8303,1.8321,1.8362,1.8399,1.8405,1.8431,1.8478,1.8485,1.8443,1.8525,1.854,1.8614,1.8648,1.8593,1.8598,1.881,1.8813,1.8816,1.8835,0,0,0,0,0,0,1.8201,1.8221,1.8249,1.8303,1.8325,1.8427,1.8401,1.8408,1.8441,1.844,1.8497,1.8505,1.8525,1.8604,1.862,1.8656,1.8603,1.8807,1.8811,1.8815,1.8832,1.8839,1.8845,0,0,0,0,0,1.8194,1.8251,1.8251,1.8268,1.836,1.8429,1.8441,1.8462,1.8444,1.8473,1.8504,1.8503,1.8642,1.8612,1.8629,1.8668,1.8805,1.881,1.8815,1.8829,1.8837,1.8845,0,0,0,0,0,0,1.8201,1.8258,1.8259,1.8335,1.8377,1.8429,1.8467,1.847,1.8519,1.8516,1.8541,1.8554,1.8627,1.8655,1.862,1.8746,1.8721,1.873,1.8726,1.8734,1.8741,1.8733,1.8608,0,0,0,0,0,1.8211,1.826,1.8308,1.8371,1.8392,1.8426,1.8456,1.8469,1.8514,1.8532,1.8568,1.8613,1.8667,1.8702,1.8754,1.8835,1.8849,1.8871,1.8877,1.8882,1.889,1.8938,1.8948,1.8834,1.8834,1.8834,0,0,1.8233,1.827,1.83,1.8373,1.8407,1.846,1.8441,1.8497,1.8536,1.8541,1.8613,1.8641,1.8693,1.8771,1.8808,1.8797,1.8925,1.8889,1.8893,1.8898,1.8944,1.8955,1.8964,1.8838,1.8837,1.8837,0,0,1.83,1.8332,1.8389,1.8423,1.8475,1.8497,1.8511,1.8564,1.8582,1.8654,1.8659,1.8708,1.8799,1.8837,1.8868,1.8951,1.8954,1.8968,1.9003,1.9049,1.9058,1.9066,1.9098,1.9108,1.8975,1.8975,1.8975,0,1.8321,1.8399,1.8418,1.8474,1.8507,1.8512,1.8571,1.8604,1.8671,1.8694,1.8681,1.8797,1.8832,1.8921,1.8941,1.8965,1.8984,1.8962,1.9054,1.9063,1.9071,1.9101,1.9113,1.8977,1.8976,1.8976,1.8976,0,1.8423,1.8477,1.8517,1.858,1.8618,1.8675,1.8704,1.874,1.875,1.8774,1.8849,1.8892,1.8954,1.8975,1.8985,1.9066,1.9058,1.9049,1.9025,1.9083,1.9112,1.9124,1.8979,1.8978,1.8978,1.8977,0,0,1.8498,1.8571,1.8586,1.8615,1.8673,1.8716,1.8775,1.8834,1.8865,1.8911,1.8963,1.9041,1.9033,1.9069,1.9083,1.9123,1.9189,1.911,1.9112,1.9125,1.9284,1.9291,1.9304,1.919,1.9193,1.9194,1.928,0,1.8572,1.8675,1.8694,1.8785,1.8836,1.8843,1.8894,1.8936,1.8961,1.901,1.9038,1.9094,1.9079,1.9101,1.914,1.9172,1.9222,1.9166,1.9241,1.9243,1.9229,1.9319,1.9327,1.9405,1.9291,1.9293,1.9294,0,1.8673,1.8721,1.8816,1.8869,1.8891,1.8937,1.8994,1.9039,1.9088,1.9104,1.9144,1.9154,1.9218,1.9189,1.9279,1.9241,1.9272,1.9293,1.9296,1.9305,1.9273,1.9332,1.943,1.9443,1.9312,1.9311,1.931,0,1.872,1.8809,1.8877,1.8902,1.8965,1.8997,1.9025,1.9072,1.9107,1.9158,1.9181,1.9238,1.927,1.9316,1.9342,1.9319,1.943,1.9403,1.9447,1.9446,1.9471,1.9469,1.9577,1.9488,1.9488,1.9488,1.9488,0,1.8803,1.8861,1.89,1.8942,1.9009,1.9031,1.9097,1.9125,1.9167,1.9217,1.9226,1.9273,1.9303,1.9355,1.9376,1.9448,1.9462,1.9478,1.9484,1.9479,1.9477,1.9501,1.9497,1.9491,1.949,1.949,1.9489,0,1.8867,1.8895,1.8971,1.9024,1.9039,1.9086,1.9132,1.9175,1.92,1.9263,1.9279,1.9319,1.938,1.9411,1.9487,1.9502,1.9584,1.9585,1.9567,1.9569,1.9612,1.9608,1.974,1.976,1.9656,1.9657,1.9658,0,1.8919,1.8964,1.9022,1.9055,1.9083,1.9137,1.9173,1.9197,1.9235,1.9295,1.9331,1.9393,1.9443,1.9542,1.9579,1.9639,1.9642,1.9685,1.9651,1.9646,1.9646,1.9643,1.9649,1.9691,1.9692,1.9693,1.9693,0,1.9008,1.902,1.907,1.9126,1.9168,1.9214,1.9259,1.9286,1.9318,1.936,1.9423,1.9462,1.954,1.9603,1.9665,1.9696,1.9701,1.9703,1.9717,1.9713,1.9702,1.9711,1.9585,1.9701,1.97,1.9699,1.9699,1.9699,1.9069,1.911,1.9158,1.9214,1.925,1.9293,1.9336,1.9366,1.9418,1.9483,1.9495,1.9562,1.9612,1.9696,1.9729,1.9783,1.9774,1.9793,1.9799,1.9803,1.9807,1.9692,1.9795,1.9794,1.9794,1.9794,1.9794,0,1.9161,1.9192,1.9243,1.9306,1.9351,1.935,1.94,1.9438,1.9497,1.9542,1.9592,1.9665,1.9726,1.9768,1.983,1.9866,1.987,1.9881,1.988,1.9887,1.981,1.9793,1.9877,1.9877,1.9877,1.9877,1.9877,1.9877,1.9214,1.9284,1.9301,1.9391,1.9422,1.9486,1.9515,1.9555,1.9592,1.9672,1.9723,1.9749,1.9794,1.986,1.9916,1.9927,1.9951,1.9963,1.9974,1.9901,1.9893,1.9884,1.9868,1.9967,1.9967,2.0047,2.0048,2.0048]},{"header":{"parameterUnit":"m.s-1","parameterCategory":1,"la1":30.2991,"la2":30.254,"lo1":-89.0895,"lo2":-89.0444,"dy":0.0017,"dx":0.0017,"nx":28,"ny":28,"refTime":"2025-03-05T09:00:00:Z","depth":0,"parameterNumber":3,"parameterNumberName":"V-component_of_WINDS"},"data":[0,0,0,0,0,0,0,0,0,0,0,0,0,0,0,0,0,0,0,0,0,0,0,0,0,0,0,0,0,0,0,0,0,0,0,0,0,0,0,0,0,0,0,0,0,0,0,0,0,0,0,0,0,0,0,0,0,0,-0.3292,-0.3292,0,-0.3351,-0.3352,-0.3352,-0.3445,-0.3446,-0.3448,-0.3449,-0.351,-0.351,-0.351,0,0,0,0,0,0,0,0,0,0,0,0,0,-0.3259,-0.3259,-0.3292,-0.3292,-0.3293,-0.3351,-0.3352,-0.3353,-0.3444,-0.3446,-0.3448,-0.345,-0.351,-0.351,-0.351,0,0,0,0,0,0,0,0,0,0,0,0,0,-0.3291,-0.3259,-0.3291,-0.3346,-0.3351,-0.3351,-0.3352,-0.3353,-0.3444,-0.3446,-0.3449,-0.3451,-0.351,-0.351,-0.351,-0.3461,0,0,-0.351,-0.351,0,0,0,0,0,0,0,0,-0.3289,-0.3292,-0.3337,-0.3342,-0.3348,-0.3393,-0.3363,-0.3389,-0.3443,-0.3409,-0.3449,-0.3452,-0.3469,-0.3472,-0.3478,-0.3464,-0.3466,-0.351,-0.351,-0.351,-0.351,0,0,0,0,0,0,0,-0.3287,-0.329,-0.3315,-0.3338,-0.3344,-0.3368,-0.3375,-0.3368,-0.3424,-0.3412,-0.3419,-0.3425,-0.3472,-0.3478,-0.348,-0.3467,-0.351,-0.351,-0.351,-0.351,-0.3419,-0.3417,0,0,0,0,0,0,-0.3277,-0.3288,-0.3313,-0.3317,-0.3324,-0.3366,-0.3375,-0.3376,-0.3424,-0.3434,-0.3422,-0.3429,-0.3476,-0.348,-0.3483,-0.3431,-0.351,-0.351,-0.351,-0.3422,-0.3419,-0.3416,0,0,0,0,0,0,-0.3276,-0.3278,-0.3311,-0.3304,-0.331,-0.3364,-0.3365,-0.3376,-0.3382,-0.3432,-0.3443,-0.3418,-0.3478,-0.3482,-0.3466,-0.3435,-0.351,-0.351,-0.3425,-0.3421,-0.3418,-0.3326,0,0,0,0,0,0,-0.3274,-0.3277,-0.3258,-0.3303,-0.331,-0.3293,-0.3363,-0.3375,-0.3382,-0.339,-0.3431,-0.344,-0.3481,-0.3466,-0.3466,-0.3436,-0.351,-0.3428,-0.3423,-0.3419,-0.3332,-0.332,-0.3309,0,0,0,0,0,-0.3273,-0.3229,-0.3257,-0.3259,-0.3288,-0.3291,-0.3295,-0.3343,-0.3378,-0.3361,-0.3394,-0.3438,-0.3438,-0.3463,-0.3465,-0.3434,-0.343,-0.3424,-0.3419,-0.3337,-0.3322,-0.3309,0,0,0,0,0,0,-0.3178,-0.3236,-0.3267,-0.3237,-0.3258,-0.3306,-0.3285,-0.3325,-0.3336,-0.3344,-0.3403,-0.3412,-0.3389,-0.341,-0.3437,-0.3391,-0.3441,-0.3435,-0.3378,-0.3364,-0.3353,-0.3349,-0.351,0,0,0,0,0,-0.3154,-0.3151,-0.3202,-0.317,-0.3179,-0.323,-0.3233,-0.3269,-0.3293,-0.3303,-0.3335,-0.3357,-0.3362,-0.3364,-0.3371,-0.3336,-0.3347,-0.3315,-0.3304,-0.3294,-0.3289,-0.3275,-0.3262,-0.3398,-0.3398,-0.3398,0,0,-0.3103,-0.3135,-0.3129,-0.3152,-0.3173,-0.317,-0.3237,-0.323,-0.3229,-0.3302,-0.3289,-0.3313,-0.3342,-0.3317,-0.3307,-0.3334,-0.3254,-0.3287,-0.3279,-0.3279,-0.3268,-0.3255,-0.3243,-0.3394,-0.3395,-0.3396,0,0,-0.301,-0.3032,-0.301,-0.303,-0.3062,-0.3096,-0.3091,-0.3133,-0.3153,-0.3141,-0.3197,-0.3197,-0.3203,-0.3223,-0.3233,-0.3151,-0.3193,-0.3152,-0.3091,-0.3077,-0.3066,-0.3057,-0.303,-0.302,-0.3146,-0.3146,-0.3146,0,-0.2944,-0.2941,-0.2993,-0.2984,-0.2994,-0.3061,-0.304,-0.3056,-0.3088,-0.3093,-0.3123,-0.3135,-0.3159,-0.3141,-0.3121,-0.3126,-0.3124,-0.3148,-0.3063,-0.3055,-0.3047,-0.3022,-0.3012,-0.3141,-0.3141,-0.3142,-0.3142,0,-0.2859,-0.2856,-0.2834,-0.2865,-0.2872,-0.2856,-0.2908,-0.2909,-0.2944,-0.2976,-0.2965,-0.2997,-0.3013,-0.3012,-0.3045,-0.2999,-0.3015,-0.3052,-0.3104,-0.3028,-0.3006,-0.2997,-0.3134,-0.3135,-0.3137,-0.3138,0,0,-0.2706,-0.2768,-0.276,-0.2776,-0.2816,-0.2816,-0.2804,-0.2821,-0.2822,-0.2842,-0.2836,-0.2841,-0.2878,-0.289,-0.2927,-0.2914,-0.285,-0.2954,-0.2956,-0.2936,-0.2805,-0.2777,-0.2765,-0.2878,-0.2877,-0.2875,-0.2803,0,-0.2623,-0.2607,-0.2656,-0.2628,-0.2628,-0.2693,-0.2683,-0.2708,-0.2738,-0.2743,-0.2776,-0.278,-0.2827,-0.2835,-0.2825,-0.286,-0.2825,-0.2866,-0.2874,-0.2874,-0.2867,-0.2753,-0.2723,-0.2653,-0.2794,-0.2793,-0.2792,0,-0.2523,-0.254,-0.2512,-0.2558,-0.2559,-0.255,-0.2571,-0.2574,-0.2604,-0.2628,-0.2642,-0.2686,-0.268,-0.2729,-0.2722,-0.2749,-0.2756,-0.2773,-0.2772,-0.2776,-0.2829,-0.2756,-0.2632,-0.2622,-0.2778,-0.2779,-0.278,0,-0.2418,-0.2433,-0.242,-0.2431,-0.2483,-0.2475,-0.2496,-0.2529,-0.2537,-0.2556,-0.2562,-0.2579,-0.2589,-0.2602,-0.265,-0.2681,-0.2639,-0.2691,-0.266,-0.2658,-0.2649,-0.2649,-0.2526,-0.2649,-0.265,-0.265,-0.265,0,-0.2321,-0.2302,-0.2374,-0.2365,-0.2347,-0.2404,-0.2384,-0.2412,-0.2441,-0.2441,-0.2497,-0.2496,-0.2558,-0.2564,-0.2602,-0.2592,-0.2596,-0.2616,-0.2626,-0.2611,-0.2609,-0.2618,-0.2624,-0.2647,-0.2648,-0.2648,-0.2649,0,-0.22,-0.2247,-0.2237,-0.2288,-0.23,-0.2285,-0.2329,-0.2324,-0.2359,-0.2358,-0.2361,-0.2415,-0.2425,-0.2474,-0.2495,-0.2521,-0.2499,-0.2518,-0.2489,-0.2496,-0.2463,-0.2466,-0.2343,-0.2331,-0.2459,-0.2458,-0.2457,0,-0.2136,-0.2123,-0.2173,-0.2177,-0.2196,-0.2201,-0.2211,-0.2267,-0.2274,-0.231,-0.2301,-0.2316,-0.2331,-0.2345,-0.2386,-0.2404,-0.2425,-0.2381,-0.2428,-0.2415,-0.2428,-0.2429,-0.2429,-0.2371,-0.2369,-0.2368,-0.2367,0,-0.2017,-0.2042,-0.2053,-0.2073,-0.2083,-0.2101,-0.2123,-0.2123,-0.2186,-0.2192,-0.2203,-0.2215,-0.2238,-0.2253,-0.2278,-0.2301,-0.2345,-0.2352,-0.2346,-0.2332,-0.2316,-0.2327,-0.2464,-0.2354,-0.2356,-0.2357,-0.2357,-0.2358,-0.1925,-0.1918,-0.1953,-0.1964,-0.1987,-0.2007,-0.2006,-0.2041,-0.2052,-0.2075,-0.2108,-0.2116,-0.215,-0.2188,-0.2208,-0.2216,-0.2241,-0.2231,-0.2229,-0.2227,-0.222,-0.2313,-0.222,-0.2221,-0.2221,-0.2222,-0.2222,0,-0.1811,-0.1838,-0.1848,-0.1877,-0.1887,-0.1928,-0.1955,-0.196,-0.1967,-0.1994,-0.2009,-0.2024,-0.2039,-0.2083,-0.2104,-0.2102,-0.2123,-0.2106,-0.2107,-0.2113,-0.2196,-0.22,-0.2089,-0.2089,-0.2089,-0.2089,-0.2089,-0.2089,-0.1753,-0.1745,-0.1774,-0.1779,-0.1805,-0.1814,-0.1827,-0.1846,-0.1869,-0.1883,-0.1897,-0.1925,-0.1961,-0.1985,-0.2001,-0.2014,-0.202,-0.1997,-0.2016,-0.2093,-0.2106,-0.2118,-0.2123,-0.1997,-0.1997,-0.1933,-0.1932,-0.1931]}]]